Weather in Yelatma

Russia / Ryazan Oblast     54°57′58″N   41°45′05″E
temp.,
°C
wind,
m/s
gust,
m/s
humid.,
%
clouds,
%
prec.,
mm/h
press.,
hPa
HPBL,
m
1 march, mon
mon100:00−12nne1197100 0.1 102121
03:00−13nnw229788 0.1 102220
06:00−14nw22960 0.0 102320
09:00−10w119540 0.0 102569
12:00−5wsw349389 0.0 1024334
15:00−3wsw479193 0.1 1022624
18:00−3wsw4994100 0.1 1020674
21:00−2wsw51193100 0.1 1017580
2 march, tue
tue200:000wsw61295100 0.1 1014647
03:00+1w51295100 0.1 1012635
06:00+1wsw51295100 0.0 1008662
09:00+1w51199100 0.3 1007659
12:00+1wnw51195100 0.2 1005852
15:00+1nw499676 0.4 1005813
18:00−2nw4108843 0.1 1006281
21:00−2wnw4119270 0.1 1007492
3 march, wed
wed300:00−4wnw41095100 0.1 1007326
03:00−3nw5119599 0.3 1008692
06:00−7nw5128993 0.1 1009495
09:00−7nw6119093 0.1 1011656
12:00−4nw61086100 0.1 1012799
15:00−2nw597967 0.1 10121040
18:00−3wnw4109086 0.1 1012584
21:00−4w4109488 0.1 1012329
4 march, thu
thu400:00−3w5119477 0.0 1011444
03:00−5wsw4119456 0.0 1009333
06:00−4sw51293100 0.0 1006543
09:00−2sw71494100 0.3 1003665
12:00+1wsw71488100 0.0 10001123
15:000wsw71396100 0.1 9991118
18:000wsw71396100 0.6 996943
21:000w71393100 1.5 996899
5 march, fri
fri500:00−4nnw3109793 0.4 999417
03:00−7nw399372 0.5 1003217
06:00−10wnw23940 0.0 100755
09:00−8wnw24940 0.0 1009189
12:00−4wnw238418 0.0 1010527
15:00−3wnw247919 0.0 1012881
18:00−7nw128788 0.0 101321
21:00−10ne119052 0.0 101421